Weather History for Henderson, NV

Change the Weather History Date:

Thursday, November 22, 2012

  Actual Average (KLAS) Record (KLAS)
Temperature  
Mean Temperature 58 °F 53 °F  
Max Temperature 70 °F 63 °F 77 °F (1976)
Min Temperature 45 °F 44 °F 24 °F (1941)
Degree Days  
Heating Degree Days 8 12  
Month to date heating degree days 163  
Since 1 July heating degree days 202  
Cooling Degree Days 0 0  
Month to date cooling degree days 10  
Year to date cooling degree days 3566  
Growing Degree Days 8 (Base 50)    
Moisture  
Dew Point 31 °F    
Average Humidity 42    
Maximum Humidity 58    
Minimum Humidity 22    
Precipitation  
Precipitation 0.00 in 0.01 in 1.09 in (1965)
Month to date precipitation 0.25  
Year to date precipitation 3.58  
Snow  
Snow 0.00 in 0.00 in 0.00 in (2012)
Month to date snowfall 0.0  
Since 1 July snowfall 0.0  
Since 1 September snowfall 0.0  
Snow Depth -    
Sea Level Pressure  
Sea Level Pressure 30.12 in    
Wind  
Wind Speed 4 mph (East)    
Max Wind Speed 9 mph    
Max Gust Speed -    
Visibility 10 miles    
Events      
T = Trace of Precipitation, MM = Missing Value Source: NWS Daily Summary

Daily Weather History Graph

Daily Weather History Graph

Search for Another Location

Airport:

Trip Planner

Search our weather history database for the weather conditions in past years. The results will help you decide how hot, cold, wet, or windy it might be!

Date:

Astronomy

Nov. 22, 2012 Rise Set
Actual Time 6:24 AM PST 4:28 PM PST
Civil Twilight 5:56 AM PST 4:56 PM PST
Nautical Twilight 5:25 AM PST 5:27 PM PST
Astronomical Twilight 4:54 AM PST 5:58 PM PST
Moon 1:08 PM PST (11/22) 12:58 AM PST (11/22)
Length of Visible Light 10h 59m
Length of Day
10h 04m
Waxing Gibbous, 72% of the Moon is Illuminated
Nov 22
Waxing Gibbous
Nov 28
Full
Dec 6
Last Quarter
Dec 13
New
Dec 19
First Quarter

Hourly Weather History & Observations

Time (PST) Temp. Windchill Dew Point Humidity Pressure Visibility Wind Dir Wind Speed Gust Speed Precip Events Conditions
12:56 AM 47.8 °F - 32.0 °F 54% 30.00 in 10.0 mi SSE 9.2 mph - N/A   Clear
1:56 AM 46.9 °F - 31.1 °F 54% 30.01 in 10.0 mi Calm Calm - N/A   Clear
2:56 AM 45.0 °F - 31.1 °F 58% 30.03 in 10.0 mi Calm Calm - N/A   Clear
3:56 AM 45.9 °F - 31.1 °F 56% 30.04 in 10.0 mi Calm Calm - N/A   Clear
4:56 AM 45.0 °F - 31.1 °F 58% 30.06 in 10.0 mi Calm Calm - N/A   Clear
5:56 AM 45.0 °F 40.6 °F 31.1 °F 58% 30.08 in 10.0 mi South 8.1 mph - N/A   Clear
6:56 AM 45.0 °F 40.1 °F 31.1 °F 58% 30.10 in 10.0 mi SSW 9.2 mph - N/A   Clear
7:56 AM 52.0 °F - 32.9 °F 48% 30.12 in 10.0 mi South 5.8 mph - N/A   Clear
8:56 AM 59.9 °F - 32.9 °F 36% 30.13 in 10.0 mi Calm Calm - N/A   Clear
9:56 AM 61.9 °F - 32.0 °F 33% 30.15 in 10.0 mi NE 8.1 mph - N/A   Clear
10:56 AM 64.9 °F - 32.0 °F 29% 30.14 in 10.0 mi NNE 6.9 mph - N/A   Clear
11:56 AM 66.9 °F - 31.1 °F 26% 30.12 in 10.0 mi NNE 8.1 mph - N/A   Clear
12:56 PM 68.9 °F - 31.1 °F 25% 30.10 in 10.0 mi NNE 5.8 mph - N/A   Clear
1:56 PM 70.9 °F - 30.0 °F 22% 30.10 in 10.0 mi NE 8.1 mph - N/A   Clear
2:56 PM 70.0 °F - 30.0 °F 23% 30.09 in 10.0 mi North 8.1 mph - N/A   Clear
3:56 PM 69.8 °F - 30.2 °F 23% 30.19 in 10.0 mi Calm Calm - N/A   Clear
4:56 PM 63.9 °F - 31.1 °F 29% 30.12 in 10.0 mi Calm Calm - N/A   Clear
5:56 PM 57.9 °F - 32.0 °F 37% 30.14 in 10.0 mi Calm Calm - N/A   Clear
6:56 PM 55.4 °F - 32.0 °F 41% 30.23 in 10.0 mi Calm Calm - N/A   Clear
7:56 PM 54.0 °F - 31.1 °F 42% 30.17 in 10.0 mi SSE 8.1 mph - N/A   Clear
8:56 PM 50.9 °F - 32.0 °F 48% 30.18 in 10.0 mi Calm Calm - N/A   Clear
9:56 PM 50.9 °F - 32.0 °F 48% 30.19 in 10.0 mi Calm Calm - N/A   Clear
10:56 PM 48.9 °F - 32.0 °F 52% 30.20 in 10.0 mi Calm Calm - N/A   Clear
11:56 PM 50.0 °F - 30.0 °F 46% 30.20 in 10.0 mi Calm Calm - N/A   Clear